Enid Vance AFB, OK

1:39 AM CDT on October 22, 2017 (GMT -0500)
Vance Air Force Base

Weather History for KEND - January, 2014

Change the Weather History Date:

Sunday, January 5, 2014

  Actual Average Record
Temperature  
Mean Temperature 13 °F -  
Max Temperature 21 °F 44 °F 68 °F (2008)
Min Temperature 3 °F 24 °F 3 °F (2014)
Degree Days  
Heating Degree Days 52    
Moisture  
Dew Point 15 °F    
Average Humidity 93    
Maximum Humidity 100    
Minimum Humidity 58    
Precipitation  
Precipitation 0.00 in - - ()
Snow  
Snow 0.00 in - - ()
Snow Depth 1.00 in    
Sea Level Pressure  
Sea Level Pressure 30.16 in    
Wind  
Wind Speed 21 mph (NNW)    
Max Wind Speed 28 mph    
Max Gust Speed 38 mph    
Visibility 5 miles    
Events Snow    
Averages and records for this station are not official NWS values.
T = Trace of Precipitation, MM = Missing Value Source: NWS Daily Summary

Daily Weather History Graph

Daily Weather History Graph

Search for Another Location

Airport or City:

Trip Planner

Search our weather history database for the weather conditions in past years. The results will help you decide how hot, cold, wet, or windy it might be!

Date:

Astronomy

Jan. 05, 2014 Rise Set
Actual Time 7:43 AM CST 5:30 PM CST
Civil Twilight 7:15 AM CST 5:59 PM CST
Nautical Twilight 6:43 AM CST 6:31 PM CST
Astronomical Twilight 6:11 AM CST 7:02 PM CST
Moon 10:35 AM CST (1/5) 10:50 PM CST (1/5)
Length of Visible Light 10h 44m
Length of Day
9h 47m
Waxing Crescent, 25% of the Moon is Illuminated
Jan 5
Waxing Crescent
Jan 7
First Quarter
Jan 15
Full
Jan 23
Last Quarter
Jan 30
New

Hourly Weather History & Observations

Time (CST) Temp. Windchill Dew Point Humidity Pressure Visibility Wind Dir Wind Speed Gust Speed Precip Events Conditions
12:03 AM 21.2 °F 5.2 °F 21.2 °F 100% 29.97 in 1.5 mi North 21.9 mph 27.6 mph N/A Snow Light Snow
12:08 AM 21.2 °F 5.6 °F 21.2 °F 100% 29.98 in 1.0 mi North 20.7 mph 27.6 mph N/A Snow Light Snow
12:13 AM 21.2 °F 6.4 °F 19.4 °F 93% 29.98 in 1.2 mi North 18.4 mph 29.9 mph N/A Snow Light Snow
12:18 AM 21.2 °F 6.4 °F 19.4 °F 93% 29.98 in 1.5 mi North 18.4 mph 29.9 mph N/A Snow Light Snow
12:33 AM 19.4 °F 2.8 °F 19.4 °F 100% 30.00 in 1.0 mi NNW 21.9 mph 28.8 mph N/A Snow Light Snow
12:38 AM 19.4 °F 3.2 °F 19.4 °F 100% 30.00 in 0.8 mi North 20.7 mph 27.6 mph N/A Snow Light Snow
12:43 AM 19.4 °F 3.2 °F 19.4 °F 100% 30.00 in 1.0 mi NNW 20.7 mph 27.6 mph N/A Snow Light Snow
12:48 AM 19.4 °F 1.8 °F 19.4 °F 100% 30.00 in 1.2 mi North 25.3 mph 33.4 mph N/A Snow Light Snow
12:58 AM 19.4 °F 1.8 °F 19.2 °F 99% 30.03 in 1.0 mi North 25.3 mph 33.4 mph 0.00 in Snow Light Snow
1:08 AM 19.4 °F 3.2 °F 19.4 °F 100% 30.00 in 1.0 mi North 20.7 mph 34.5 mph N/A Snow Light Snow
1:13 AM 19.4 °F 2.1 °F 19.4 °F 100% 30.00 in 0.8 mi North 24.2 mph 31.1 mph N/A Snow Light Snow
1:23 AM 19.4 °F 4.1 °F 19.4 °F 100% 30.00 in 1.0 mi North 18.4 mph 27.6 mph N/A Snow Light Snow
1:28 AM 19.4 °F 4.5 °F 19.4 °F 100% 30.00 in 1.5 mi North 17.3 mph 26.5 mph N/A Snow Light Snow
1:33 AM 19.4 °F 3.2 °F 19.4 °F 100% 30.00 in 3.0 mi North 20.7 mph 26.5 mph N/A Snow Light Snow
1:38 AM 19.4 °F 3.6 °F 19.4 °F 100% 30.01 in 4.0 mi North 19.6 mph 26.5 mph N/A Snow Light Snow
1:48 AM 19.4 °F 1.1 °F 19.4 °F 100% 30.02 in 5.0 mi NNW 27.6 mph 36.8 mph N/A Snow Light Snow
1:53 AM 19.4 °F 1.4 °F 19.4 °F 100% 30.02 in 4.0 mi North 26.5 mph 36.8 mph N/A Snow Light Snow
1:58 AM 19.0 °F 1.3 °F 18.7 °F 98% 30.07 in 4.0 mi North 25.3 mph 36.8 mph 0.00 in Snow Light Snow
2:08 AM 19.4 °F 2.8 °F 19.4 °F 100% 30.03 in 4.0 mi North 21.9 mph 28.8 mph N/A Snow Light Snow
2:13 AM 19.4 °F 3.6 °F 19.4 °F 100% 30.02 in 3.0 mi North 19.6 mph - N/A Snow Light Snow
2:18 AM 19.4 °F 1.8 °F 19.4 °F 100% 30.03 in 1.8 mi North 25.3 mph 31.1 mph N/A Snow Light Snow
2:33 AM 19.4 °F 3.2 °F 19.4 °F 100% 30.04 in 2.5 mi North 20.7 mph 27.6 mph N/A Snow Light Snow
2:48 AM 19.4 °F 2.1 °F 19.4 °F 100% 30.04 in 2.0 mi North 24.2 mph 34.5 mph N/A Snow Light Snow
2:53 AM 19.4 °F 2.8 °F 19.4 °F 100% 30.04 in 2.0 mi North 21.9 mph 31.1 mph N/A Snow Light Snow
2:58 AM 18.9 °F 2.9 °F 18.7 °F 99% 30.08 in 3.0 mi NNW 19.6 mph 28.8 mph 0.00 in Snow Light Snow
3:28 AM 19.4 °F 2.8 °F 17.6 °F 93% 30.04 in 4.0 mi North 21.9 mph 33.4 mph N/A   Overcast
3:38 AM 19.4 °F 2.5 °F 19.4 °F 100% 30.05 in 5.0 mi North 23.0 mph 29.9 mph N/A   Overcast
3:43 AM 19.4 °F 2.8 °F 19.4 °F 100% 30.05 in 6.0 mi North 21.9 mph 29.9 mph N/A   Overcast
3:53 AM 19.4 °F 2.5 °F 19.4 °F 100% 30.05 in 7.0 mi North 23.0 mph 29.9 mph N/A   Mostly Cloudy
3:58 AM 19.0 °F 2.0 °F 18.9 °F 99% 30.09 in 7.0 mi North 23.0 mph 31.1 mph 0.00 in   Mostly Cloudy
4:03 AM 19.4 °F 2.8 °F 19.4 °F 100% 30.05 in 5.0 mi North 21.9 mph 31.1 mph N/A Snow Blowing Snow
4:08 AM 19.4 °F 3.6 °F 19.4 °F 100% 30.05 in 4.0 mi North 19.6 mph 27.6 mph N/A Snow Blowing Snow
4:13 AM 19.4 °F 4.5 °F 19.4 °F 100% 30.06 in 4.0 mi North 17.3 mph 27.6 mph N/A Snow Blowing Snow
4:23 AM 19.4 °F 3.6 °F 19.4 °F 100% 30.06 in 4.0 mi North 19.6 mph - N/A Snow Blowing Snow
4:53 AM 19.4 °F 4.5 °F 19.4 °F 100% 30.07 in 3.0 mi NNW 17.3 mph 21.9 mph N/A   Overcast
4:58 AM 19.6 °F 3.1 °F 19.4 °F 99% 30.12 in 2.5 mi NNW 21.9 mph - 0.00 in   Overcast
5:03 AM 19.4 °F 4.1 °F 19.4 °F 100% 30.08 in 3.0 mi NNW 18.4 mph - N/A   Overcast
5:08 AM 19.4 °F 2.5 °F 19.4 °F 100% 30.08 in 4.0 mi NNW 23.0 mph 27.6 mph N/A   Overcast
5:18 AM 19.4 °F 1.1 °F 17.6 °F 93% 30.08 in 6.0 mi NNW 27.6 mph 35.7 mph N/A   Overcast
5:33 AM 17.6 °F -0.6 °F 17.6 °F 100% 30.09 in 7.0 mi North 25.3 mph 34.5 mph N/A Snow Blowing Snow
5:48 AM 17.6 °F 1.7 °F 17.6 °F 100% 30.10 in 7.0 mi NNW 18.4 mph 24.2 mph N/A   Overcast
5:53 AM 17.6 °F 2.2 °F 17.6 °F 100% 30.10 in 4.0 mi North 17.3 mph - N/A   Overcast
5:58 AM 17.6 °F 1.3 °F 17.6 °F 100% 30.16 in 2.5 mi North 19.6 mph 24.2 mph 0.00 in   Overcast
6:13 AM 17.6 °F -0.6 °F 17.6 °F 100% 30.11 in 2.5 mi North 25.3 mph 38.0 mph N/A   Overcast
6:18 AM 17.6 °F -0.6 °F 17.6 °F 100% 30.12 in 4.0 mi North 25.3 mph 38.0 mph N/A Snow Blowing Snow
6:23 AM 17.6 °F 0.1 °F 17.6 °F 100% 30.12 in 5.0 mi North 23.0 mph 32.2 mph N/A Snow Blowing Snow
6:28 AM 17.6 °F 0.9 °F 17.6 °F 100% 30.12 in 6.0 mi NNW 20.7 mph - N/A   Overcast
6:43 AM 17.6 °F -1.0 °F 17.6 °F 100% 30.13 in 4.0 mi NNW 26.5 mph 33.4 mph N/A   Overcast
6:48 AM 17.6 °F -0.6 °F 17.6 °F 100% 30.13 in 4.0 mi NNW 25.3 mph 33.4 mph N/A   Overcast
6:53 AM 17.6 °F 0.9 °F 17.6 °F 100% 30.14 in 5.0 mi NNW 20.7 mph 29.9 mph N/A   Overcast
6:58 AM 17.1 °F 1.0 °F 16.7 °F 98% 30.20 in 5.0 mi NNW 18.4 mph 29.9 mph 0.00 in   Overcast
7:18 AM 15.8 °F -2.3 °F 15.8 °F 100% 30.15 in 5.0 mi North 23.0 mph 31.1 mph N/A   Overcast
7:33 AM 15.8 °F -1.5 °F 15.8 °F 100% 30.15 in 4.0 mi NNW 20.7 mph - N/A   Overcast
7:58 AM 15.6 °F -2.6 °F 15.4 °F 99% 30.23 in 3.0 mi NNW 23.0 mph 27.6 mph 0.00 in   Overcast
8:13 AM 15.8 °F -3.4 °F 14.0 °F 93% 30.18 in 5.0 mi NNW 26.5 mph 32.2 mph N/A   Overcast
8:33 AM 14.0 °F -4.3 °F 14.0 °F 100% 30.19 in 10.0 mi NNW 21.9 mph 32.2 mph N/A   Overcast
8:38 AM 14.0 °F -3.9 °F 14.0 °F 100% 30.20 in 10.0 mi NNW 20.7 mph 29.9 mph N/A   Overcast
8:43 AM 14.0 °F -3.0 °F 14.0 °F 100% 30.20 in 8.0 mi NNW 18.4 mph - N/A   Overcast
8:48 AM 15.8 °F -1.5 °F 14.0 °F 93% 30.20 in 5.0 mi NNW 20.7 mph - N/A   Overcast
8:58 AM 15.1 °F -2.5 °F 14.9 °F 99% 30.27 in 4.0 mi NNW 20.7 mph - 0.00 in   Overcast
9:32 AM 15.8 °F -1.5 °F 15.8 °F 100% 30.23 in 5.0 mi NNW 20.7 mph 25.3 mph N/A Snow Blowing Snow
9:57 AM 15.8 °F -3.1 °F 10.4 °F 79% 30.32 in 10.0 mi North 25.3 mph 34.5 mph N/A   Mostly Cloudy
10:29 AM 15.8 °F -3.1 °F 6.8 °F 68% 30.28 in 10.0 mi North 25.3 mph 35.7 mph N/A   Scattered Clouds
10:58 AM 15.8 °F -3.1 °F 6.8 °F 68% 30.36 in 10.0 mi North 25.3 mph 29.9 mph N/A   Scattered Clouds
11:59 AM 17.6 °F -1.0 °F 6.8 °F 63% 30.36 in 7.0 mi North 26.5 mph 31.1 mph N/A   Partly Cloudy
12:57 PM 17.6 °F -0.6 °F 6.8 °F 63% 30.37 in 10.0 mi North 25.3 mph 32.2 mph N/A   Scattered Clouds
1:58 PM 17.6 °F -1.0 °F 5.0 °F 58% 30.37 in 10.0 mi North 26.5 mph 33.4 mph N/A   Scattered Clouds
2:56 PM 17.6 °F 1.3 °F 5.0 °F 58% 30.42 in 10.0 mi North 19.6 mph 32.2 mph N/A   Partly Cloudy
3:55 PM 17.6 °F -0.3 °F 5.0 °F 58% 30.45 in 10.0 mi North 24.2 mph 31.1 mph N/A   Partly Cloudy
4:57 PM 15.8 °F -0.6 °F 5.0 °F 62% 30.49 in 10.0 mi North 18.4 mph - N/A   Scattered Clouds
5:58 PM 12.7 °F -1.1 °F 4.5 °F 70% 30.54 in 10.0 mi North 11.5 mph - N/A   Partly Cloudy
6:58 PM 14.0 °F -2.5 °F 4.1 °F 65% 30.57 in 10.0 mi North 17.3 mph - N/A   Overcast
7:58 PM 12.2 °F -2.5 °F 1.8 °F 63% 30.61 in 10.0 mi North 12.7 mph - N/A   Scattered Clouds
8:58 PM 10.4 °F -3.3 °F 2.3 °F 70% 30.62 in 10.0 mi North 10.4 mph - N/A   Clear
9:58 PM 7.5 °F -3.9 °F 1.0 °F 75% 30.64 in 10.0 mi North 6.9 mph - N/A   Clear
10:58 PM 5.0 °F -5.6 °F 0.7 °F 82% 30.66 in 10.0 mi NW 5.8 mph - N/A   Clear
11:58 PM 3.2 °F -9.1 °F 0.3 °F 88% 30.67 in 10.0 mi WNW 6.9 mph - N/A   Clear